When you browse on this site, cookies collect data to enhance your experience and personalize the content and advertising you see.
Visit our Privacy Policy to learn more. By continuing to use the site, you agree to this use of cookies and data.
  • In Lithuania
  • List of Countries
  • For 7 days
  • Water Temperature
  • Weather Map
  • Weather Widgets
  • user-avatar
    Login

    Hourly Weather Zaranj

    Today, 10 December, Tuesday

    Time Temperature Precipitation Wind Pressure Humidity
    00:00 +17°C° 0.1 mm 3 mps 719 mmHg 59%
    01:00 +17°C° 0.1 mm 4 mps 719 mmHg 61%
    02:00 +16°C° 0.2 mm 3 mps 719 mmHg 64%
    03:00 +16°C° 0.2 mm 3 mps 719 mmHg 67%
    04:00 +14°C° 0 mm 3 mps 719 mmHg 68%
    05:00 +14°C° 0 mm 3 mps 719 mmHg 68%
    06:00 +13°C° 0 mm 3 mps 720 mmHg 67%
    07:00 +14°C° 0 mm 2 mps 720 mmHg 67%
    08:00 +16°C° 0 mm 3 mps 720 mmHg 61%
    09:00 +17°C° 0 mm 3 mps 720 mmHg 56%
    10:00 +18°C° 0 mm 4 mps 721 mmHg 47%
    11:00 +19°C° 0 mm 3 mps 720 mmHg 45%
    12:00 +20°C° 0 mm 3 mps 720 mmHg 42%
    13:00 +21°C° 0 mm 3 mps 720 mmHg 40%
    14:00 +21°C° 0 mm 3 mps 719 mmHg 40%
    15:00 +21°C° 0 mm 3 mps 719 mmHg 39%
    16:00 +21°C° 0 mm 2 mps 718 mmHg 39%
    17:00 +20°C° 0 mm 2 mps 719 mmHg 42%
    18:00 +20°C° 0 mm 1 mps 719 mmHg 46%
    19:00 +19°C° 0 mm 1 mps 719 mmHg 49%
    20:00 +19°C° 0 mm 1 mps 719 mmHg 50%
    21:00 +18°C° 0 mm 1 mps 719 mmHg 50%
    22:00 +17°C° 0 mm 2 mps 719 mmHg 51%
    23:00 +17°C° 0 mm 2 mps 719 mmHg 52%

    Tomorrow, 11 December, Wednesday

    Time Temperature Precipitation Wind Pressure Humidity
    00:00 +17°C° 0 mm 3 mps 719 mmHg 54%
    01:00 +16°C° 0 mm 3 mps 718 mmHg 56%
    02:00 +16°C° 0 mm 3 mps 718 mmHg 55%
    03:00 +16°C° 0 mm 3 mps 718 mmHg 54%
    04:00 +14°C° 0 mm 3 mps 718 mmHg 54%
    05:00 +14°C° 0 mm 3 mps 718 mmHg 54%
    06:00 +15°C° 0 mm 2 mps 718 mmHg 54%
    07:00 +15°C° 0 mm 2 mps 718 mmHg 54%
    08:00 +16°C° 0.1 mm 2 mps 718 mmHg 51%
    09:00 +17°C° 0.1 mm 2 mps 718 mmHg 49%
    10:00 +18°C° 0.1 mm 2 mps 718 mmHg 46%
    11:00 +18°C° 0.2 mm 3 mps 718 mmHg 45%
    12:00 +19°C° 0.2 mm 3 mps 717 mmHg 44%
    13:00 +20°C° 0.2 mm 3 mps 716 mmHg 43%
    14:00 +19°C° 0.3 mm 4 mps 716 mmHg 44%
    15:00 +19°C° 0.3 mm 4 mps 716 mmHg 45%
    16:00 +19°C° 0.3 mm 5 mps 716 mmHg 47%
    17:00 +17°C° 0.2 mm 5 mps 716 mmHg 50%
    18:00 +16°C° 0.2 mm 5 mps 717 mmHg 53%
    19:00 +15°C° 0.2 mm 6 mps 717 mmHg 56%
    20:00 +14°C° 0.1 mm 4 mps 717 mmHg 58%
    21:00 +15°C° 0.1 mm 2 mps 717 mmHg 61%
    22:00 +13°C° 0.1 mm 0 mps 717 mmHg 63%
    23:00 +14°C° 0 mm 1 mps 717 mmHg 63%

    Day after tomorrow, 12 December, Thursday

    Time Temperature Precipitation Wind Pressure Humidity
    00:00 +14°C° 0 mm 2 mps 717 mmHg 62%
    01:00 +14°C° 0 mm 2 mps 717 mmHg 62%
    02:00 +13°C° 0 mm 2 mps 717 mmHg 62%
    03:00 +13°C° 0 mm 2 mps 716 mmHg 62%
    04:00 +13°C° 0 mm 2 mps 716 mmHg 63%
    05:00 +12°C° 0 mm 1 mps 716 mmHg 64%
    06:00 +12°C° 0 mm 1 mps 717 mmHg 65%
    07:00 +11°C° 0 mm 0 mps 717 mmHg 66%
    08:00 +13°C° 0.1 mm 1 mps 718 mmHg 62%
    09:00 +14°C° 0.1 mm 1 mps 718 mmHg 57%
    10:00 +15°C° 0.1 mm 1 mps 718 mmHg 53%
    11:00 +16°C° 0 mm 3 mps 718 mmHg 49%
    12:00 +17°C° 0 mm 4 mps 717 mmHg 45%
    13:00 +17°C° 0 mm 6 mps 717 mmHg 41%
    14:00 +17°C° 0 mm 6 mps 717 mmHg 40%
    15:00 +16°C° 0 mm 6 mps 716 mmHg 39%
    16:00 +16°C° 0 mm 6 mps 716 mmHg 39%
    17:00 +15°C° 0 mm 6 mps 717 mmHg 41%
    18:00 +14°C° 0 mm 6 mps 717 mmHg 44%
    19:00 +14°C° 0 mm 5 mps 718 mmHg 47%
    20:00 +13°C° 0 mm 6 mps 718 mmHg 48%
    21:00 +13°C° 0 mm 6 mps 718 mmHg 50%
    22:00 +11°C° 0 mm 7 mps 719 mmHg 52%
    23:00 +11°C° 0 mm 7 mps 719 mmHg 54%

    13 December, Friday

    Time Temperature Precipitation Wind Pressure Humidity
    00:00 +10°C° 0 mm 6 mps 719 mmHg 56%
    01:00 +10°C° 0 mm 6 mps 719 mmHg 58%
    02:00 +9°C° 0 mm 6 mps 719 mmHg 59%
    03:00 +9°C° 0 mm 5 mps 718 mmHg 59%
    04:00 +9°C° 0 mm 5 mps 718 mmHg 60%
    05:00 +8°C° 0 mm 5 mps 719 mmHg 61%
    06:00 +8°C° 0 mm 4 mps 719 mmHg 61%
    07:00 +8°C° 0 mm 4 mps 719 mmHg 62%
    08:00 +10°C° 0 mm 4 mps 719 mmHg 57%
    09:00 +11°C° 0 mm 3 mps 720 mmHg 53%
    10:00 +12°C° 0 mm 3 mps 720 mmHg 48%
    11:00 +14°C° 0 mm 2 mps 719 mmHg 45%
    12:00 +15°C° 0 mm 2 mps 719 mmHg 42%
    13:00 +16°C° 0 mm 1 mps 718 mmHg 39%
    14:00 +16°C° 0 mm 2 mps 718 mmHg 38%
    15:00 +16°C° 0 mm 2 mps 718 mmHg 37%
    16:00 +16°C° 0 mm 2 mps 717 mmHg 35%
    17:00 +15°C° 0 mm 2 mps 718 mmHg 38%
    18:00 +14°C° 0 mm 3 mps 718 mmHg 40%
    19:00 +13°C° 0 mm 3 mps 718 mmHg 42%
    20:00 +13°C° 0 mm 3 mps 718 mmHg 42%
    21:00 +12°C° 0 mm 3 mps 719 mmHg 42%
    22:00 +12°C° 0 mm 3 mps 719 mmHg 42%
    23:00 +12°C° 0 mm 3 mps 719 mmHg 43%

    14 December, Saturday

    Time Temperature Precipitation Wind Pressure Humidity
    00:00 +12°C° 0 mm 3 mps 718 mmHg 43%
    01:00 +12°C° 0 mm 2 mps 718 mmHg 43%
    02:00 +11°C° 0 mm 3 mps 718 mmHg 43%
    03:00 +11°C° 0 mm 3 mps 718 mmHg 43%
    04:00 +11°C° 0 mm 3 mps 718 mmHg 43%
    05:00 +11°C° 0 mm 3 mps 719 mmHg 43%
    06:00 +11°C° 0 mm 3 mps 719 mmHg 44%
    07:00 +10°C° 0 mm 3 mps 720 mmHg 44%
    08:00 +12°C° 0 mm 4 mps 721 mmHg 41%
    09:00 +13°C° 0 mm 4 mps 721 mmHg 37%
    10:00 +14°C° 0 mm 5 mps 722 mmHg 33%
    11:00 +15°C° 0 mm 5 mps 722 mmHg 32%
    12:00 +16°C° 0 mm 6 mps 721 mmHg 31%
    13:00 +17°C° 0 mm 6 mps 721 mmHg 30%
    14:00 +16°C° 0 mm 6 mps 721 mmHg 34%
    15:00 +15°C° 0 mm 6 mps 721 mmHg 38%
    16:00 +15°C° 0 mm 6 mps 721 mmHg 42%
    17:00 +14°C° 0 mm 6 mps 721 mmHg 47%
    18:00 +13°C° 0 mm 5 mps 722 mmHg 52%
    19:00 +12°C° 0 mm 5 mps 722 mmHg 57%
    20:00 +12°C° 0 mm 4 mps 723 mmHg 58%
    21:00 +11°C° 0 mm 3 mps 723 mmHg 59%
    22:00 +12°C° 0 mm 2 mps 723 mmHg 60%
    23:00 +10°C° 0 mm 2 mps 723 mmHg 62%

    15 December, Sunday

    Time Temperature Precipitation Wind Pressure Humidity
    00:00 +10°C° 0 mm 2 mps 723 mmHg 63%
    01:00 +11°C° 0 mm 1 mps 723 mmHg 65%
    02:00 +10°C° 0 mm 1 mps 723 mmHg 67%
    03:00 +10°C° 0 mm 1 mps 723 mmHg 68%
    04:00 +10°C° 0 mm 1 mps 723 mmHg 70%
    05:00 +9°C° 0 mm 1 mps 723 mmHg 72%
    06:00 +9°C° 0 mm 1 mps 723 mmHg 74%
    07:00 +9°C° 0 mm 1 mps 723 mmHg 75%
    08:00 +10°C° 0 mm 1 mps 724 mmHg 69%
    09:00 +12°C° 0 mm 1 mps 724 mmHg 63%
    10:00 +13°C° 0 mm 1 mps 724 mmHg 56%
    11:00 +14°C° 0 mm 1 mps 723 mmHg 53%
    12:00 +15°C° 0 mm 1 mps 723 mmHg 49%
    13:00 +15°C° 0 mm 1 mps 722 mmHg 45%
    14:00 +15°C° 0 mm 1 mps 722 mmHg 44%
    15:00 +16°C° 0 mm 1 mps 722 mmHg 43%
    16:00 +16°C° 0 mm 1 mps 721 mmHg 42%
    17:00 +15°C° 0 mm 1 mps 722 mmHg 45%
    18:00 +14°C° 0 mm 1 mps 722 mmHg 48%
    19:00 +13°C° 0 mm 1 mps 722 mmHg 50%
    20:00 +13°C° 0 mm 1 mps 722 mmHg 52%
    21:00 +11°C° 0 mm 0 mps 723 mmHg 54%
    22:00 +11°C° 0 mm 0 mps 723 mmHg 56%
    23:00 +10°C° 0 mm 0 mps 723 mmHg 57%
    Show more